Wind_Speed
26 26 26 26 26 26 25 25 25 25 25 25 24 24 24 24 24 23 22 22 22 22 21 21 21 21 21 22 22 22 22 21 21 21 21 22 22 22 22 22 22 21 21
27 28 27 27 27 27 27 27 26 27 27 26 26 25 25 26 26 25 24 24 24 23 23 23 22 22 22 23 23 24 24 24 24 24 23 23 23 24 23 23 23 23 23
28 29 28 28 28 29 29 29 29 28 28 29 28 27 27 27 27 26 26 26 25 25 24 24 24 24 24 24 24 24 25 26 26 26 25 25 25 25 25 25 25 25 25
30 30 31 31 30 30 31 31 30 30 29 29 29 29 29 29 29 28 28 28 28 27 27 26 26 26 26 26 26 26 26 26 27 27 27 27 27 27 27 26 26 26 27
31 31 32 32 32 32 32 32 32 32 31 30 30 31 31 31 31 30 30 30 30 30 29 29 28 28 28 28 28 28 28 27 27 27 28 28 29 29 29 28 28 29 29
32 32 32 33 33 33 33 33 34 33 33 33 32 32 33 32 32 32 31 30 31 31 31 31 31 30 30 30 30 31 30 30 29 29 30 30 30 30 31 31 31 31 31
32 33 33 34 34 34 35 35 34 35 35 35 35 35 34 34 33 34 33 33 33 33 33 33 32 32 32 31 32 32 31 31 31 31 31 31 32 32 32 32 32 32 32
33 33 33 34 35 36 35 35 35 36 36 36 36 35 35 35 35 35 35 35 34 35 35 35 34 34 34 33 33 33 33 33 33 34 34 33 33 33 32 33 33 33 34
34 34 34 34 36 36 37 36 36 36 37 37 37 36 36 36 36 36 36 36 36 36 36 36 36 36 36 35 35 35 35 35 35 36 36 35 35 35 35 34 35 35 35
34 34 35 35 36 37 37 37 37 37 37 37 38 38 38 37 37 37 37 37 37 38 38 38 38 38 37 37 37 37 37 37 37 37 38 38 38 38 37 36 36 37 37
34 34 34 35 36 36 37 36 37 37 37 37 38 38 38 39 39 39 38 38 38 39 39 39 39 39 39 39 39 39 39 39 38 39 39 39 39 40 39 39 40 40 41
35 35 34 35 36 37 37 37 37 37 37 37 38 39 39 39 39 40 40 39 39 40 40 40 41 41 41 41 40 40 40 40 40 40 41 41 41 41 41 42 42 43 43
36 36 35 35 36 36 37 38 38 38 38 38 38 39 39 39 40 41 40 40 40 41 42 42 42 42 42 42 42 41 41 42 42 43 43 44 44 44 44 44 45 45 45
37 37 37 37 37 37 38 39 39 39 39 39 39 39 40 40 41 42 42 42 43 42 42 43 43 43 44 44 43 43 43 44 44 45 45 46 46 46 47 48 48 48 48
39 39 39 39 38 38 38 39 39 39 39 40 40 40 41 41 42 43 44 45 44 44 44 44 45 45 46 46 46 46 46 46 46 47 46 47 47 47 48 49 49 49 50
40 40 40 40 40 39 39 39 39 39 40 41 41 41 42 42 42 43 44 45 46 46 46 46 46 46 47 48 48 48 49 49 49 49 48 48 49 50 50 50 51 51 51
41 41 41 41 40 40 40 40 41 41 41 42 42 42 43 43 42 43 44 45 45 46 46 46 46 47 48 48 49 49 49 49 50 50 50 50 51 51 52 52 52 52 52
42 42 42 42 42 42 42 43 43 43 43 43 44 44 44 45 44 44 44 45 46 46 47 47 47 47 47 48 49 49 50 50 51 51 52 52 52 52 52 52 53 52 52
43 43 43 43 43 43 43 43 44 45 45 45 45 45 45 45 45 45 45 46 47 47 48 48 48 48 48 49 49 50 50 50 51 52 53 53 53 53 53 54 54 53 53
45 44 44 44 44 43 43 44 45 45 45 45 45 46 46 46 46 46 47 48 48 49 49 49 49 49 50 50 51 51 52 52 53 54 54 54 54 54 54 55 54 54 54
45 45 45 45 45 44 44 45 45 45 46 46 46 46 46 47 48 48 48 49 49 50 50 51 51 51 51 51 52 53 53 54 54 54 53 53 54 54 53 54 54 54 54
46 46 45 45 45 45 45 46 46 47 47 47 47 47 47 48 49 49 49 50 50 50 51 51 52 52 52 53 53 53 53 53 52 51 52 52 52 52 52 52 53 54 54
47 47 47 46 46 46 46 46 47 47 47 47 48 49 49 49 50 49 50 50 50 51 51 51 51 51 51 52 53 53 53 53 52 51 52 51 52 51 51 52 53 53 53
48 48 48 48 47 47 48 48 48 48 48 48 48 49 49 50 50 50 50 51 51 51 51 51 51 51 52 52 52 52 52 51 50 51 51 51 51 51 52 52 52 52 53
49 49 49 49 49 48 49 49 50 50 50 49 49 50 50 50 50 51 51 51 51 51 51 51 51 51 51 52 52 52 51 51 51 50 51 51 51 51 51 51 52 52 53
49 49 49 49 49 49 50 50 51 51 51 51 50 50 50 50 50 50 51 50 50 50 51 51 51 51 50 50 51 52 51 51 51 50 50 51 51 52 51 51 51 52 53
Wind_Direction
247 248 249 247 246 246 247 247 247 247 247 248 251 252 251 250 249 251 253 256 257 259 260 261 263 267 268 269 270 272 273 276 278 280 282 284 285 286 287 289 291 293 295
250 250 251 249 247 247 247 248 248 249 249 250 252 253 254 253 252 253 253 255 257 259 260 262 264 267 269 272 272 272 273 274 277 280 281 282 283 284 286 286 288 289 291
252 250 250 250 250 249 249 250 250 251 251 252 253 254 256 256 255 255 257 256 257 259 261 263 264 267 269 272 274 274 275 275 276 278 279 280 281 283 285 285 286 287 288
253 253 252 252 252 251 250 251 253 253 253 254 254 254 255 255 255 256 257 258 258 258 260 263 265 267 270 272 274 275 276 277 276 277 278 279 280 282 283 284 285 286 286
251 253 253 252 252 252 252 253 253 254 255 255 254 255 256 256 257 258 259 259 259 259 260 263 265 267 269 271 274 275 275 276 276 278 279 279 280 280 281 282 284 285 286
252 255 254 253 253 253 253 254 254 254 255 255 254 256 257 257 258 258 259 259 260 261 261 263 265 267 269 270 271 272 274 275 276 278 279 279 280 280 280 280 282 283 285
254 256 255 254 254 253 254 255 255 255 255 255 254 255 256 257 258 258 259 259 260 261 262 263 265 268 269 271 272 273 273 274 276 277 279 279 280 281 281 280 280 282 283
256 256 257 256 254 254 254 256 257 256 256 256 256 256 256 257 258 257 258 259 261 262 263 264 265 267 268 270 272 272 272 274 275 275 277 278 279 280 281 281 281 282 282
257 257 258 257 254 254 254 256 257 257 257 257 256 257 257 258 258 258 259 260 262 263 263 264 265 267 269 270 271 272 273 273 274 274 275 276 277 279 279 281 281 281 282
258 258 258 258 256 256 256 256 256 256 257 258 257 257 258 259 259 258 259 261 262 263 264 264 265 267 269 270 271 271 272 272 273 274 274 275 276 278 279 279 281 281 282
257 258 258 258 257 258 257 256 256 256 257 259 259 259 259 260 259 259 260 261 262 264 264 265 266 268 269 269 270 271 272 273 273 274 275 276 277 277 278 279 280 281 281
257 258 259 259 259 258 258 259 258 257 258 259 259 260 260 261 261 261 261 262 263 264 265 266 267 268 269 270 271 271 272 273 273 273 274 276 277 277 278 279 280 281 281
258 259 259 260 260 259 259 259 260 259 258 259 260 261 262 262 262 263 262 262 263 264 265 266 266 267 268 269 270 272 273 273 274 274 275 276 277 277 277 277 279 279 280
258 259 259 260 261 261 260 260 260 260 260 261 262 263 263 263 264 263 263 263 264 265 265 267 267 268 268 269 270 271 272 273 274 275 276 276 277 277 277 277 278 278 279
258 259 259 260 261 261 262 261 260 260 260 261 261 262 263 263 265 264 264 264 265 266 267 268 268 269 270 270 270 271 271 272 273 274 275 275 276 276 277 277 278 278 279
258 259 260 260 262 262 261 261 260 260 261 262 262 263 263 264 265 266 266 266 266 268 268 269 269 270 271 271 271 271 272 273 274 274 274 275 275 276 277 277 278 279 280
258 259 260 260 261 262 262 261 260 261 262 262 263 263 263 264 266 268 268 267 268 269 269 269 270 271 271 271 271 272 273 274 274 274 274 275 276 277 277 278 278 278 279
257 258 259 260 262 263 262 262 261 261 262 263 264 264 264 265 268 269 269 268 268 269 270 270 270 270 271 272 273 273 274 274 275 275 275 276 277 278 278 278 278 278 279
257 258 259 261 263 264 264 262 262 262 263 263 264 265 266 266 268 270 270 270 270 270 271 271 271 271 273 274 274 274 274 275 276 276 276 276 277 278 277 277 278 278 278
257 258 259 261 262 263 264 263 262 263 263 263 264 265 266 267 268 270 271 271 271 271 272 272 272 272 274 274 274 274 275 275 277 277 277 277 277 277 277 277 278 278 278
257 258 259 260 261 262 262 263 263 264 264 264 264 265 266 268 269 270 272 273 273 273 273 273 273 274 275 275 275 275 276 277 278 278 277 277 277 277 277 277 277 278 278
258 259 260 261 261 262 263 263 263 264 264 264 265 265 267 268 269 271 272 273 273 274 274 274 275 275 275 276 275 276 277 278 278 278 277 277 277 278 277 277 277 278 278
258 259 260 261 261 262 263 263 263 263 264 265 266 266 267 268 269 271 271 272 273 274 275 275 276 276 277 277 277 277 277 278 278 277 277 277 278 278 278 278 279 279 279
258 259 260 260 261 262 262 262 263 264 265 266 268 269 269 270 271 271 271 272 273 274 275 275 276 277 277 278 278 278 278 277 278 278 278 278 278 278 278 279 280 281 281
259 259 259 260 261 262 263 263 264 265 266 267 269 270 271 271 271 271 271 272 273 274 274 275 276 277 278 278 279 278 278 278 278 279 279 280 279 278 278 279 279 281 281
259 259 260 261 262 262 263 264 264 265 266 267 268 269 271 271 272 272 272 273 274 274 275 275 276 277 278 279 279 279 278 278 278 279 279 280 280 279 279 279 280 281 282
Height
5813 5814 5816 5818 5820 5823 5825 5827 5829 5831 5833 5835 5837 5838 5840 5842 5843 5845 5846 5847 5848 5849 5850 5850 5851 5851 5851 5852 5852 5852 5852 5852 5852 5851 5851 5850 5850 5849 5849 5848 5847 5847 5846
5807 5809 5811 5813 5815 5817 5820 5822 5824 5826 5828 5830 5832 5833 5835 5837 5838 5840 5841 5843 5844 5845 5845 5846 5846 5846 5847 5847 5847 5847 5847 5847 5847 5846 5846 5845 5845 5845 5844 5843 5843 5842 5841
5801 5803 5805 5807 5809 5812 5814 5816 5818 5821 5822 5824 5826 5828 5830 5831 5833 5835 5836 5838 5839 5839 5840 5841 5841 5841 5842 5842 5842 5842 5841 5841 5841 5841 5840 5840 5840 5839 5839 5838 5837 5837 5836
5795 5797 5799 5801 5803 5806 5808 5811 5813 5815 5817 5818 5820 5822 5824 5826 5827 5829 5830 5832 5833 5834 5835 5835 5836 5836 5836 5836 5836 5836 5836 5836 5835 5835 5835 5834 5834 5834 5833 5832 5832 5831 5830
5789 5791 5793 5795 5797 5799 5802 5804 5806 5808 5810 5812 5814 5816 5817 5819 5821 5822 5824 5825 5826 5827 5828 5829 5830 5830 5830 5830 5830 5830 5830 5830 5829 5829 5829 5828 5828 5828 5827 5826 5826 5825 5824
5783 5784 5786 5788 5790 5792 5794 5797 5799 5801 5803 5805 5807 5808 5810 5812 5814 5815 5817 5818 5819 5820 5822 5822 5823 5823 5823 5823 5823 5823 5823 5823 5823 5823 5822 5822 5821 5821 5820 5820 5819 5819 5818
5776 5777 5779 5781 5783 5785 5787 5789 5791 5793 5795 5797 5799 5801 5802 5804 5806 5808 5809 5811 5812 5813 5814 5815 5816 5816 5816 5816 5816 5816 5816 5816 5816 5815 5815 5815 5814 5814 5813 5812 5812 5811 5811
5768 5770 5772 5773 5775 5777 5779 5782 5784 5786 5787 5789 5791 5793 5795 5797 5798 5800 5802 5803 5804 5805 5806 5807 5808 5809 5809 5809 5809 5809 5809 5809 5808 5808 5807 5807 5807 5806 5806 5805 5804 5804 5803
5761 5762 5764 5765 5767 5769 5771 5773 5775 5778 5780 5782 5783 5785 5786 5788 5790 5792 5794 5795 5796 5797 5798 5799 5800 5800 5801 5801 5801 5801 5801 5800 5800 5800 5799 5799 5798 5798 5797 5797 5796 5795 5794
5753 5754 5756 5757 5759 5761 5763 5765 5767 5769 5771 5773 5775 5776 5778 5780 5782 5783 5785 5786 5788 5789 5790 5791 5791 5792 5792 5792 5792 5792 5792 5792 5791 5791 5791 5790 5790 5789 5789 5788 5787 5786 5785
5745 5747 5748 5749 5751 5753 5754 5756 5759 5761 5763 5765 5766 5768 5769 5771 5773 5775 5777 5778 5779 5780 5781 5782 5782 5783 5783 5783 5783 5783 5783 5782 5782 5782 5781 5781 5780 5780 5779 5778 5777 5776 5776
5737 5739 5740 5741 5743 5744 5746 5748 5750 5752 5754 5756 5758 5759 5760 5762 5764 5766 5767 5769 5770 5771 5772 5772 5773 5773 5773 5773 5773 5773 5773 5772 5772 5771 5771 5770 5770 5769 5768 5768 5767 5766 5765
5728 5730 5731 5733 5734 5736 5738 5739 5741 5743 5745 5747 5749 5750 5752 5753 5755 5756 5758 5759 5761 5762 5762 5763 5762 5763 5763 5763 5762 5762 5762 5761 5761 5760 5759 5759 5759 5758 5757 5756 5755 5755 5754
5719 5721 5723 5724 5726 5727 5729 5730 5732 5734 5736 5738 5739 5741 5742 5744 5745 5746 5748 5749 5750 5752 5752 5753 5752 5752 5752 5752 5751 5751 5751 5750 5749 5749 5748 5747 5746 5746 5745 5744 5743 5742 5741
5710 5712 5714 5715 5717 5718 5720 5721 5723 5725 5727 5728 5730 5731 5732 5733 5735 5736 5737 5738 5739 5741 5742 5742 5741 5741 5741 5740 5740 5739 5739 5738 5737 5737 5736 5735 5734 5733 5732 5731 5730 5729 5728
5701 5702 5704 5706 5707 5709 5710 5712 5714 5715 5717 5718 5719 5721 5722 5723 5724 5725 5726 5726 5727 5728 5729 5730 5729 5729 5728 5728 5727 5727 5726 5725 5725 5724 5723 5722 5721 5720 5720 5718 5717 5716 5714
5691 5692 5694 5696 5697 5699 5700 5702 5704 5705 5706 5708 5709 5710 5711 5712 5713 5713 5714 5715 5715 5716 5717 5718 5717 5716 5716 5715 5714 5714 5713 5712 5711 5711 5710 5709 5708 5707 5706 5705 5703 5702 5701
5680 5682 5683 5685 5687 5688 5689 5691 5692 5694 5695 5697 5698 5699 5700 5701 5702 5702 5703 5703 5703 5703 5704 5705 5704 5704 5703 5702 5701 5701 5700 5699 5698 5697 5696 5695 5694 5693 5691 5690 5689 5687 5686
5669 5671 5673 5674 5676 5677 5678 5679 5681 5682 5684 5685 5686 5687 5688 5689 5690 5690 5690 5691 5691 5690 5690 5691 5691 5691 5690 5689 5688 5687 5687 5685 5684 5683 5682 5681 5679 5678 5676 5675 5674 5673 5672
5658 5660 5661 5663 5664 5665 5667 5668 5669 5670 5672 5673 5674 5675 5676 5677 5677 5677 5677 5678 5677 5677 5677 5677 5678 5677 5677 5675 5674 5673 5673 5671 5670 5668 5667 5665 5664 5663 5661 5660 5659 5658 5657
5646 5648 5649 5651 5652 5654 5655 5656 5657 5658 5660 5661 5662 5663 5663 5664 5664 5664 5664 5664 5664 5664 5664 5663 5663 5663 5663 5661 5660 5659 5658 5657 5656 5653 5652 5651 5649 5648 5646 5645 5644 5643 5642
5633 5635 5637 5639 5640 5641 5642 5643 5645 5646 5647 5648 5649 5650 5651 5651 5651 5651 5651 5651 5650 5650 5649 5649 5649 5648 5648 5646 5645 5644 5643 5642 5642 5641 5637 5637 5634 5633 5632 5630 5629 5627 5626
5620 5622 5624 5626 5627 5629 5629 5631 5632 5633 5635 5636 5637 5637 5638 5638 5637 5637 5637 5637 5636 5635 5635 5635 5634 5633 5632 5632 5630 5629 5628 5627 5626 5624 5623 5622 5621 5619 5617 5615 5614 5612 5610
5607 5609 5611 5613 5614 5615 5616 5617 5619 5620 5622 5623 5623 5623 5624 5624 5623 5623 5623 5623 5623 5622 5621 5620 5620 5619 5617 5616 5615 5614 5612 5612 5611 5610 5607 5607 5606 5604 5603 5601 5598 5596 5594
5594 5596 5597 5599 5601 5602 5603 5604 5605 5606 5608 5609 5609 5609 5609 5610 5609 5609 5609 5609 5609 5608 5606 5605 5605 5604 5602 5601 5600 5599 5598 5597 5597 5596 5593 5592 5591 5589 5589 5587 5584 5581 5579
5580 5582 5584 5585 5587 5588 5589 5590 5590 5592 5594 5595 5595 5595 5595 5595 5595 5594 5594 5594 5594 5594 5593 5592 5591 5590 5588 5587 5585 5584 5583 5582 5581 5581 5579 5577 5575 5573 5573 5573 5569 5566 5564